Wind_Speed
18 19 18 18 20 20 19 18 18 17 17 16 17 17 18 18 18 19 18 17 17 17 17 17 17 17 16 16 15 15 15 14 14 13 13 13 12 12 12 12 12 11 11 11 11 10 9 9 9
20 20 20 20 21 21 19 19 19 19 18 18 18 19 19 19 20 20 19 18 18 18 18 18 18 18 17 17 17 16 16 16 15 14 14 14 13 13 13 13 13 12 13 12 11 11 11 10 10
21 22 21 22 22 21 20 20 20 20 20 20 20 20 21 21 20 21 20 20 19 20 20 19 19 19 18 18 18 18 18 17 17 17 15 15 15 15 15 15 15 14 14 13 13 12 12 11 11
22 22 23 23 23 21 21 21 21 21 21 21 21 22 22 22 22 22 22 21 21 20 21 20 20 20 20 19 19 19 19 18 18 18 17 16 16 15 16 16 16 16 16 15 14 14 14 13 13
24 25 25 24 24 23 22 22 22 23 23 23 23 23 23 23 23 23 23 23 22 21 22 22 22 22 22 21 21 21 20 20 19 19 18 19 18 17 17 17 17 17 17 17 16 15 15 15 15
26 26 27 25 25 24 24 24 24 24 25 25 25 24 24 23 24 24 25 25 24 23 23 24 23 23 23 23 23 23 22 22 21 21 21 20 20 19 19 18 18 18 18 18 18 17 17 17 17
26 27 28 27 26 25 25 25 25 25 26 27 27 27 25 25 25 25 26 26 26 25 25 25 25 25 25 24 24 24 24 24 24 23 23 22 22 21 21 20 20 20 20 19 19 19 18 18 18
26 28 27 27 27 27 26 27 27 27 28 28 29 29 27 27 27 27 27 27 27 26 26 26 26 26 26 26 26 26 26 25 25 25 24 24 23 23 23 22 21 22 22 21 21 21 21 20 20
28 29 28 27 28 28 28 28 29 29 29 30 30 30 29 29 29 29 29 28 28 27 27 26 26 26 27 27 27 27 26 26 26 26 26 25 25 25 25 24 24 23 23 23 23 23 23 22 22
29 30 28 28 29 30 30 30 30 30 30 31 31 31 31 31 30 30 31 31 30 29 28 27 27 28 28 28 29 28 28 28 27 28 28 28 27 26 26 26 26 25 25 25 25 25 25 24 24
31 30 29 30 30 31 32 32 32 32 32 32 31 32 32 32 32 32 32 32 32 31 30 30 30 30 29 29 29 29 29 29 29 29 29 29 29 28 27 28 28 28 28 27 26 26 26 26 26
32 31 31 31 32 33 33 33 34 33 33 33 32 33 34 34 34 34 33 33 33 33 33 32 32 31 31 31 31 31 31 31 31 31 30 30 30 30 29 29 30 30 30 30 29 29 29 29 28
33 33 33 33 33 34 34 34 34 34 34 34 34 34 35 35 35 35 35 35 35 35 35 34 34 33 33 33 33 33 32 32 33 32 32 32 32 31 32 32 32 32 32 32 32 31 31 31 31
35 35 35 35 35 35 36 36 37 35 35 36 35 34 34 34 35 35 36 36 36 36 36 35 35 34 34 34 34 34 34 34 34 34 34 34 34 34 33 33 33 34 34 34 33 33 33 33 33
36 36 36 36 36 37 38 38 37 36 36 36 36 36 36 36 35 35 36 36 37 37 37 36 36 36 35 35 35 35 35 35 35 35 36 35 36 36 36 35 35 35 36 36 35 35 34 35 35
36 37 37 35 37 37 38 37 36 36 37 37 37 37 37 37 37 37 37 37 37 38 38 37 37 37 37 37 37 37 37 37 37 37 37 38 37 37 37 37 37 37 37 37 37 37 38 38 37
36 37 37 36 37 37 38 37 36 36 37 37 38 38 38 38 38 38 38 38 38 38 38 38 38 38 39 39 39 39 39 39 40 39 40 40 39 38 38 39 39 39 39 39 39 39 39 39 39
36 37 38 38 37 38 38 38 37 37 37 37 38 39 39 39 39 39 40 40 39 39 40 40 40 40 40 40 40 40 40 40 40 40 39 40 40 40 40 40 40 40 40 40 40 40 40 40 40
36 37 38 38 38 39 39 39 38 38 39 38 39 39 40 40 40 41 41 42 41 41 41 42 42 42 42 42 41 41 41 41 41 40 40 40 40 41 41 41 42 41 41 41 41 41 41 42 42
36 37 37 38 39 39 39 39 40 39 40 40 39 39 40 41 41 42 42 43 43 43 42 42 43 43 42 42 42 43 43 43 43 43 43 43 42 42 43 43 44 44 44 43 43 43 43 43 43
36 37 37 38 39 40 41 41 41 40 40 41 40 40 41 41 41 41 42 43 43 43 43 43 44 44 44 44 44 44 44 44 44 44 45 45 44 44 44 44 45 45 45 45 45 44 45 45 45
36 36 37 37 39 40 41 43 41 41 41 41 41 41 40 41 41 41 41 42 43 43 43 44 44 45 44 45 45 45 45 45 45 45 46 46 46 46 47 46 46 46 46 46 46 46 46 46 46
36 36 37 37 38 40 40 43 43 42 42 41 41 41 41 41 41 41 41 41 42 43 44 45 45 46 46 45 45 46 46 45 45 46 46 46 46 46 47 47 47 47 48 48 48 48 48 48 48
35 36 37 38 38 40 40 41 42 41 41 41 41 41 40 41 41 42 41 41 42 43 44 44 45 46 47 47 46 46 46 46 46 46 46 46 47 47 48 48 48 49 49 49 49 49 49 49 49
33 33 34 36 37 39 37 40 41 40 41 41 41 41 40 40 40 41 42 42 42 43 44 44 44 45 46 47 47 47 47 47 47 46 47 47 47 47 48 48 49 49 50 50 50 50 50 50 49
32 33 33 35 36 36 36 38 38 39 39 39 40 40 40 40 40 40 41 42 43 43 44 44 44 45 45 46 46 47 47 47 47 47 47 47 48 48 48 48 48 49 50 50 50 50 51 51 51
31 32 32 34 35 35 36 36 36 36 37 37 37 38 39 39 40 40 40 41 42 43 43 44 44 45 46 46 46 47 47 48 48 48 48 48 48 49 49 49 49 49 50 50 50 50 51 52 52
30 31 32 33 34 35 35 35 35 35 35 35 35 36 36 37 39 40 40 41 41 42 42 43 44 45 46 47 48 48 49 49 49 49 49 49 49 49 50 50 49 50 50 51 51 51 52 53 54
29 29 30 32 33 34 35 35 35 35 35 36 36 36 36 36 36 38 39 40 40 41 42 43 44 45 45 47 48 49 49 50 50 50 50 51 51 51 51 51 51 51 51 52 52 53 53 54 55
30 30 30 31 32 33 34 34 34 35 36 36 37 36 35 35 36 37 38 39 39 41 42 43 44 45 46 47 48 49 51 51 52 52 52 52 52 52 52 52 52 53 53 53 53 53 54 55 55
Wind_Direction
250 248 248 249 250 250 249 248 248 247 249 249 251 252 251 250 250 252 250 247 246 245 245 245 242 242 243 244 245 243 240 238 237 237 235 234 234 236 236 235 235 237 237 236 237 238 238 238 239
252 250 249 250 250 251 251 253 252 250 250 250 251 252 251 250 251 252 250 248 246 246 246 246 245 244 244 245 245 244 243 241 239 240 238 238 238 239 240 240 240 240 240 240 239 240 239 241 242
252 250 250 251 252 254 254 256 255 253 251 251 251 251 251 251 251 252 251 249 247 247 247 247 247 245 245 245 246 245 245 245 243 242 241 241 241 241 241 242 243 242 242 242 241 241 240 241 244
251 250 250 252 254 256 256 256 256 254 253 253 253 252 251 251 251 251 250 249 248 248 248 248 247 247 247 246 246 245 246 247 247 246 245 245 243 243 244 244 244 244 245 245 244 242 241 242 243
252 252 251 253 255 256 258 259 258 255 253 253 252 253 251 250 250 251 251 249 248 248 249 248 248 248 248 248 247 247 248 248 248 249 248 247 247 247 247 245 244 244 245 246 245 244 245 244 244
253 253 253 255 257 257 257 259 261 258 254 253 252 253 252 252 252 252 252 252 250 250 250 248 249 249 249 249 247 247 248 248 248 250 249 249 249 249 249 247 245 245 246 247 247 247 247 246 246
256 255 254 256 258 258 258 259 259 258 255 254 253 253 253 252 252 252 252 252 252 253 253 251 250 250 250 249 248 248 248 248 249 250 249 250 251 251 250 249 249 248 248 248 248 249 250 249 249
257 257 256 256 258 259 258 257 258 258 257 255 254 254 254 253 253 252 251 252 253 253 253 251 251 250 250 249 249 248 248 249 249 250 250 250 251 252 251 250 250 250 250 249 249 249 250 250 251
258 258 258 258 259 259 258 258 257 257 257 256 255 255 255 254 253 252 252 252 253 253 253 251 251 251 250 250 249 249 248 249 249 249 250 250 251 253 252 251 250 251 250 251 251 249 250 250 252
261 261 262 262 261 260 259 258 259 258 258 258 257 256 256 255 254 253 253 253 254 253 253 253 252 251 251 251 250 249 248 248 249 250 250 252 252 252 252 252 251 251 251 251 252 251 250 251 252
263 264 264 264 263 262 261 259 259 258 258 259 259 257 257 256 255 253 253 254 254 253 253 253 253 252 252 252 252 251 249 249 249 251 251 252 252 252 252 252 252 252 253 252 253 252 253 253 254
264 264 265 264 264 263 263 261 260 260 260 259 259 258 258 256 255 254 253 253 253 253 253 252 252 252 253 253 252 251 251 251 251 252 253 253 253 253 254 252 252 253 254 253 253 254 253 253 253
264 265 264 264 263 262 262 262 262 261 261 261 259 258 257 256 255 255 254 253 254 254 253 253 252 252 252 253 253 252 252 252 253 252 253 254 255 255 255 255 254 254 254 254 254 255 254 254 254
265 264 263 263 262 262 262 262 262 262 262 260 259 258 257 255 255 255 255 254 254 253 253 252 252 253 253 253 252 252 252 252 253 252 253 254 255 255 256 256 256 255 254 254 255 256 254 255 256
265 265 263 263 263 263 263 263 263 261 260 259 258 257 256 256 255 255 255 255 254 253 253 252 252 252 252 253 252 252 253 253 253 253 254 254 255 255 256 255 256 256 257 257 257 257 256 256 256
264 264 265 265 265 265 264 263 262 261 258 258 258 257 257 256 256 256 256 255 255 254 253 253 252 252 252 251 252 253 254 254 254 254 255 255 256 256 257 257 258 258 259 259 259 257 257 258 258
264 265 266 266 266 265 265 263 261 260 259 258 258 258 258 257 257 256 256 256 256 255 254 253 252 253 252 252 252 253 254 254 255 255 256 256 257 257 257 257 258 259 260 260 259 259 259 259 259
267 267 267 267 267 265 265 264 262 262 260 259 258 258 258 258 257 257 256 256 256 255 255 253 253 253 253 253 253 254 256 255 255 256 257 257 258 257 258 258 258 259 260 260 260 261 260 261 261
268 269 269 268 267 267 266 264 262 262 261 260 260 260 259 259 258 258 257 255 255 255 255 254 253 253 253 253 254 255 256 255 256 256 257 258 258 258 258 259 258 259 260 261 261 261 260 261 262
268 269 270 268 267 267 266 264 262 261 261 261 261 261 260 260 259 259 259 256 256 256 255 255 254 254 254 255 255 255 256 256 257 256 257 259 260 260 259 259 259 259 260 261 261 261 260 261 262
268 269 270 269 267 266 266 265 262 261 260 261 261 261 261 261 260 260 259 257 256 256 256 256 256 255 254 255 255 256 256 257 257 258 258 259 259 260 260 261 261 261 260 260 260 261 261 262 262
270 270 269 269 268 268 267 267 263 263 262 261 262 263 263 262 261 260 259 258 256 255 255 256 256 255 255 256 256 256 257 257 258 258 258 259 259 260 261 262 262 262 262 263 262 263 262 262 262
272 271 270 268 268 269 268 268 266 265 264 264 264 264 263 263 261 260 260 259 257 256 255 257 257 255 255 256 256 256 256 257 258 258 258 259 260 260 261 261 262 262 263 263 264 264 263 263 263
274 271 270 269 268 269 268 269 269 267 267 266 265 265 265 264 263 262 260 259 257 256 256 256 256 255 255 256 256 256 257 257 258 258 259 259 260 260 261 262 262 262 263 263 263 264 263 262 261
274 273 272 271 270 271 271 270 271 270 269 267 266 265 266 264 262 262 261 261 260 258 257 257 257 256 256 256 255 255 256 257 258 259 259 260 260 260 262 262 262 262 263 263 263 263 262 261 261
276 273 272 272 271 271 270 271 271 271 271 270 268 266 266 265 263 262 261 261 261 260 259 258 258 257 257 256 255 255 256 257 258 260 260 260 261 261 261 263 263 263 263 263 263 263 262 261 261
276 274 273 272 271 271 271 272 273 273 273 272 270 268 267 266 264 263 262 261 260 260 260 260 259 259 258 257 256 256 257 258 259 260 261 261 262 262 262 263 262 263 264 264 263 263 262 262 262
277 277 275 272 273 273 273 273 274 273 274 274 273 271 270 268 265 264 263 262 261 260 260 261 261 260 260 258 258 257 257 258 259 260 261 262 262 263 263 263 264 263 264 264 264 264 263 263 263
278 277 276 275 274 275 276 276 276 276 275 274 274 273 270 269 267 265 263 263 262 261 261 261 262 262 261 259 258 258 258 259 260 260 261 262 262 263 264 264 264 265 265 265 265 265 265 265 264
277 277 277 276 276 276 278 277 277 278 277 276 275 273 272 270 268 266 264 263 262 262 261 261 261 261 261 260 260 259 259 259 259 260 261 262 262 263 264 265 265 266 266 266 265 265 265 265 264
Height
5793 5794 5795 5797 5798 5799 5800 5801 5802 5804 5805 5806 5807 5808 5809 5810 5812 5815 5814 5814 5815 5817 5818 5819 5820 5821 5822 5824 5825 5826 5827 5828 5829 5830 5831 5832 5833 5834 5835 5836 5837 5838 5839 5841 5842 5843 5843 5844 5845
5790 5791 5793 5793 5794 5795 5797 5798 5799 5801 5802 5803 5804 5805 5806 5807 5808 5809 5810 5811 5812 5814 5815 5816 5817 5819 5820 5821 5822 5823 5824 5825 5826 5827 5828 5830 5831 5832 5833 5834 5835 5836 5837 5838 5840 5841 5842 5842 5843
5787 5788 5789 5790 5790 5792 5793 5794 5796 5797 5798 5799 5800 5801 5802 5804 5804 5805 5806 5808 5809 5811 5812 5813 5814 5816 5817 5818 5819 5820 5821 5822 5823 5825 5826 5827 5828 5829 5830 5832 5833 5834 5835 5836 5837 5839 5840 5841 5841
5783 5784 5785 5786 5787 5789 5790 5791 5792 5793 5794 5795 5796 5797 5798 5800 5801 5802 5803 5804 5805 5807 5808 5810 5811 5812 5814 5815 5816 5817 5818 5819 5820 5821 5823 5824 5825 5826 5828 5829 5830 5831 5832 5834 5835 5836 5837 5838 5839
5779 5780 5781 5781 5783 5785 5786 5787 5788 5789 5790 5791 5792 5793 5794 5795 5796 5797 5799 5800 5802 5803 5804 5806 5807 5809 5810 5811 5813 5814 5815 5816 5817 5818 5819 5821 5822 5823 5825 5826 5827 5828 5829 5831 5832 5833 5834 5836 5836
5774 5775 5776 5777 5779 5780 5782 5783 5783 5784 5785 5786 5787 5788 5789 5791 5792 5793 5794 5796 5797 5799 5800 5802 5803 5804 5806 5807 5809 5810 5811 5813 5814 5815 5816 5817 5818 5820 5821 5822 5824 5825 5826 5828 5829 5830 5831 5832 5834
5770 5770 5771 5773 5774 5775 5777 5777 5778 5779 5780 5781 5782 5783 5784 5786 5787 5788 5789 5790 5792 5794 5796 5797 5798 5800 5801 5803 5804 5806 5807 5808 5810 5811 5812 5813 5814 5816 5817 5819 5820 5821 5823 5824 5826 5827 5828 5829 5830
5764 5765 5766 5767 5768 5770 5771 5772 5772 5773 5774 5775 5776 5777 5779 5781 5782 5783 5784 5785 5787 5789 5790 5792 5793 5795 5796 5798 5799 5801 5802 5804 5805 5806 5808 5809 5810 5812 5813 5814 5816 5817 5819 5820 5822 5823 5824 5825 5827
5758 5760 5760 5762 5763 5764 5765 5766 5767 5767 5768 5769 5770 5772 5773 5774 5776 5777 5778 5780 5781 5783 5785 5786 5788 5789 5791 5792 5794 5795 5797 5799 5800 5801 5803 5804 5806 5807 5809 5810 5811 5813 5814 5816 5817 5818 5820 5821 5823
5752 5753 5756 5757 5757 5757 5758 5759 5759 5760 5761 5762 5764 5765 5766 5767 5769 5771 5772 5774 5775 5777 5779 5781 5782 5784 5785 5786 5788 5790 5791 5793 5795 5796 5797 5799 5800 5802 5803 5805 5807 5808 5809 5811 5812 5813 5815 5816 5818
5745 5747 5749 5749 5749 5749 5750 5751 5752 5753 5754 5756 5757 5758 5759 5760 5762 5763 5765 5767 5768 5770 5772 5774 5776 5777 5779 5780 5782 5783 5785 5787 5788 5790 5792 5793 5794 5796 5798 5799 5801 5802 5804 5805 5807 5808 5810 5811 5813
5738 5740 5741 5741 5741 5742 5742 5743 5744 5745 5747 5748 5749 5750 5751 5752 5754 5755 5757 5759 5761 5763 5765 5767 5769 5771 5772 5774 5775 5777 5779 5780 5782 5783 5785 5787 5788 5790 5791 5793 5795 5796 5798 5800 5801 5803 5804 5805 5807
5731 5732 5732 5733 5733 5733 5734 5734 5735 5737 5738 5739 5740 5741 5742 5744 5745 5747 5749 5751 5753 5755 5757 5759 5762 5763 5765 5767 5768 5770 5772 5773 5775 5777 5778 5780 5782 5783 5785 5786 5788 5790 5791 5793 5794 5796 5797 5799 5800
5723 5723 5723 5724 5724 5725 5725 5726 5727 5729 5729 5730 5731 5733 5734 5736 5737 5739 5741 5743 5745 5747 5749 5751 5754 5755 5757 5759 5761 5763 5764 5766 5767 5769 5771 5773 5774 5776 5778 5779 5781 5782 5784 5785 5787 5788 5790 5791 5793
5713 5713 5714 5715 5716 5716 5716 5716 5718 5720 5720 5721 5722 5724 5725 5727 5729 5731 5732 5734 5736 5738 5741 5743 5745 5747 5749 5751 5753 5755 5756 5757 5759 5761 5763 5765 5766 5768 5770 5771 5773 5774 5776 5777 5779 5780 5782 5783 5784
5704 5704 5705 5707 5707 5706 5707 5708 5710 5710 5711 5712 5713 5715 5717 5719 5721 5722 5724 5726 5728 5730 5732 5734 5737 5739 5741 5743 5744 5746 5747 5749 5751 5752 5754 5756 5758 5760 5761 5763 5764 5765 5767 5768 5770 5771 5773 5774 5776
5695 5695 5696 5698 5697 5697 5697 5698 5700 5700 5701 5703 5705 5706 5708 5710 5712 5714 5715 5717 5719 5721 5723 5725 5727 5730 5732 5734 5735 5737 5739 5740 5742 5744 5746 5747 5749 5751 5752 5754 5755 5756 5758 5759 5761 5762 5763 5765 5766
5687 5687 5687 5687 5687 5687 5687 5688 5690 5691 5692 5694 5695 5697 5699 5700 5703 5704 5706 5708 5710 5712 5714 5716 5718 5720 5722 5724 5726 5728 5729 5731 5733 5735 5736 5738 5739 5741 5742 5744 5745 5747 5748 5749 5751 5752 5753 5755 5756
5677 5677 5677 5678 5677 5677 5678 5679 5680 5681 5683 5685 5686 5688 5690 5691 5693 5694 5696 5698 5700 5702 5704 5706 5708 5710 5712 5714 5716 5718 5720 5721 5723 5725 5726 5728 5729 5731 5732 5734 5735 5737 5738 5739 5741 5742 5743 5745 5746
5667 5667 5668 5668 5667 5668 5668 5669 5670 5671 5673 5675 5677 5678 5680 5681 5683 5685 5686 5688 5690 5692 5694 5696 5698 5700 5702 5704 5706 5708 5710 5711 5713 5715 5716 5717 5719 5721 5722 5723 5724 5726 5727 5729 5730 5731 5732 5734 5735
5658 5658 5659 5658 5657 5657 5658 5658 5660 5662 5664 5666 5667 5668 5670 5671 5673 5675 5676 5677 5679 5681 5684 5685 5687 5689 5691 5693 5695 5697 5699 5700 5702 5704 5705 5706 5708 5709 5711 5712 5713 5714 5716 5717 5719 5720 5721 5722 5723
5649 5649 5648 5647 5647 5647 5648 5647 5651 5652 5654 5656 5658 5659 5660 5661 5663 5664 5665 5667 5668 5671 5672 5674 5676 5678 5680 5682 5684 5685 5687 5690 5691 5693 5694 5695 5696 5698 5699 5700 5701 5702 5704 5705 5706 5707 5709 5710 5711
5639 5639 5639 5638 5637 5637 5638 5637 5640 5642 5644 5646 5648 5649 5650 5651 5652 5653 5655 5656 5657 5659 5661 5662 5664 5666 5668 5670 5672 5674 5676 5678 5680 5681 5682 5683 5684 5685 5686 5687 5688 5690 5691 5693 5694 5695 5696 5697 5699
5630 5630 5629 5628 5627 5627 5630 5628 5629 5631 5634 5636 5637 5638 5639 5640 5641 5642 5644 5645 5646 5648 5649 5651 5652 5654 5656 5658 5659 5662 5664 5665 5667 5668 5670 5671 5672 5673 5674 5675 5676 5677 5678 5679 5680 5681 5683 5684 5686
5621 5621 5620 5618 5617 5618 5620 5618 5620 5622 5623 5625 5626 5627 5628 5629 5631 5632 5633 5634 5635 5637 5638 5639 5640 5642 5644 5645 5647 5649 5651 5653 5655 5656 5658 5659 5659 5660 5661 5662 5662 5663 5665 5666 5667 5668 5669 5671 5672
5613 5612 5612 5610 5609 5610 5609 5609 5612 5613 5613 5614 5615 5616 5617 5618 5620 5621 5622 5623 5624 5625 5626 5627 5628 5630 5631 5633 5635 5637 5639 5641 5642 5643 5645 5646 5647 5647 5648 5649 5649 5650 5651 5652 5653 5654 5656 5657 5659
5604 5603 5603 5602 5601 5600 5600 5602 5603 5603 5604 5604 5605 5606 5607 5608 5609 5610 5611 5612 5613 5614 5615 5616 5617 5618 5619 5621 5622 5624 5626 5628 5630 5631 5632 5633 5634 5634 5635 5636 5636 5637 5637 5638 5640 5641 5642 5643 5645
5596 5595 5595 5593 5591 5591 5592 5593 5595 5595 5595 5595 5595 5595 5596 5597 5598 5598 5599 5601 5602 5603 5604 5604 5605 5606 5607 5608 5610 5611 5613 5615 5616 5618 5619 5620 5621 5621 5622 5622 5623 5624 5624 5625 5626 5627 5628 5629 5631
5589 5588 5586 5585 5584 5583 5583 5587 5586 5586 5585 5585 5585 5585 5586 5586 5587 5587 5588 5589 5590 5591 5591 5592 5593 5594 5595 5596 5597 5598 5600 5601 5602 5604 5605 5606 5607 5608 5608 5609 5610 5610 5611 5611 5612 5614 5614 5615 5617
5580 5579 5579 5578 5577 5575 5575 5580 5577 5577 5576 5576 5575 5575 5575 5575 5576 5577 5577 5578 5578 5579 5580 5580 5581 5581 5582 5583 5584 5585 5586 5587 5588 5590 5591 5592 5593 5594 5594 5595 5595 5596 5597 5597 5598 5599 5600 5601 5602